CAPE
4 8 7 4 5 2 2 2 2 4 3 2 1 1 0 0 0 0 0 0 0 0 0 0 0 0 0 0 0 0 0 0 0 0 0 0 0 0 0 0 0 0 0
5 4 4 2 1 1 2 3 2 2 1 3 3 2 2 2 0 0 0 0 0 0 0 0 0 0 0 0 0 0 0 0 0 0 0 0 0 0 0 0 0 0 0
2 2 5 6 2 2 3 1 0 1 1 0 0 0 0 0 0 0 0 0 0 0 0 0 0 0 0 0 0 0 0 0 0 0 0 0 0 0 0 0 0 0 0
0 0 0 0 0 0 0 0 0 0 0 0 0 0 0 0 0 0 0 0 0 0 0 0 0 0 0 0 0 0 0 0 0 0 0 0 0 0 0 0 0 0 0
0 0 0 0 0 0 0 0 0 0 0 0 0 0 0 0 0 0 0 0 0 0 0 0 0 0 0 0 0 0 0 0 0 0 0 0 0 0 0 0 0 0 0
0 0 0 0 0 0 0 0 0 0 0 0 0 0 0 0 0 0 0 0 0 0 0 0 0 0 0 0 0 0 0 0 0 0 0 0 0 0 1 0 0 1 0
0 0 0 0 0 0 0 0 0 0 0 0 0 0 0 0 0 0 0 0 0 0 0 0 0 0 0 0 0 0 0 0 0 0 0 0 0 0 1 1 1 4 2
1 1 0 0 0 0 0 0 0 0 0 0 0 0 0 0 0 0 0 0 0 0 0 0 0 0 0 0 1 0 0 0 2 0 0 0 1 0 0 1 2 3 0
0 0 0 0 0 0 0 0 0 0 0 0 0 0 0 0 0 0 0 0 0 0 0 0 0 0 0 0 0 0 0 1 1 0 0 0 0 0 0 0 3 3 5
0 0 0 0 0 0 0 0 0 0 0 0 0 0 0 0 0 0 0 0 0 0 0 0 0 0 0 0 0 3 3 1 0 0 0 0 0 0 0 0 2 5 3
0 0 0 0 0 0 0 0 0 0 0 0 0 0 0 0 0 0 0 0 0 0 0 0 0 0 9 3 0 5 8 0 0 0 0 1 3 1 0 0 1 1 0
0 0 0 0 0 0 0 0 0 0 0 0 0 0 0 0 0 0 0 0 0 0 0 0 0 8 9 2 3 12 3 0 1 0 0 1 1 1 0 0 2 1 0
0 0 0 0 0 0 0 0 0 0 0 0 0 0 0 0 0 2 0 0 0 0 0 0 0 0 0 0 0 8 0 0 1 0 0 0 0 1 0 1 2 0 1
0 0 0 0 0 0 0 0 0 0 0 0 0 0 0 0 0 0 0 0 0 0 0 2 2 0 2 3 1 17 0 0 3 8 8 4 9 10 3 4 15 15 13
0 0 0 0 0 0 0 0 0 0 0 0 0 0 0 0 0 0 0 0 0 0 0 2 1 1 0 1 2 2 8 6 7 17 4 5 11 19 18 3 10 16 19
0 0 0 0 0 0 0 0 0 0 0 0 0 0 0 0 0 0 0 0 0 0 0 3 1 0 0 1 1 6 10 14 18 19 21 24 21 22 15 6 6 10 10
0 0 0 0 0 0 0 0 0 0 0 0 0 0 0 0 0 0 0 0 3 0 0 4 3 1 0 6 10 17 16 15 15 22 19 17 20 21 26 26 22 20 19
0 0 0 0 0 0 0 0 0 0 0 0 0 0 0 0 0 0 1 0 6 3 4 8 8 6 3 10 20 20 22 23 24 25 30 33 35 23 28 30 25 25 25
0 0 0 0 0 0 0 0 0 0 0 0 0 0 0 0 0 0 0 0 2 4 7 10 6 8 15 18 10 8 11 6 18 25 21 20 28 38 31 28 29 20 21
0 0 0 0 0 0 0 0 0 0 0 0 0 0 0 1 0 0 0 0 5 7 5 7 8 12 17 22 24 24 22 20 20 21 21 23 25 27 27 26 30 21 13
0 0 0 0 0 0 0 0 0 0 0 0 0 0 0 0 0 0 0 2 3 5 4 7 13 14 18 21 25 24 20 15 20 18 22 23 26 27 23 26 15 7 14
0 0 0 0 0 0 0 0 0 0 0 0 0 0 1 0 0 0 0 0 1 5 6 8 8 6 15 16 17 12 7 6 14 19 20 22 20 24 21 20 21 22 21
0 0 0 0 0 0 0 0 0 0 0 0 0 0 0 0 0 0 0 0 1 3 6 8 5 3 11 5 5 5 5 13 17 15 12 17 16 14 20 20 22 22 20
0 0 0 0 0 0 0 0 0 0 0 0 0 0 1 2 0 0 0 0 2 3 6 9 7 1 3 3 8 14 16 13 3 0 1 2 9 11 13 7 11 16 14
0 0 0 0 0 0 0 0 0 0 0 0 0 0 0 0 0 0 0 3 3 3 3 7 7 5 0 0 4 2 2 0 1 5 14 12 16 18 17 14 8 3 4
0 0 0 0 0 0 0 0 0 0 0 0 0 0 0 0 0 0 2 6 5 3 5 7 2 0 0 0 0 0 0 1 3 7 16 18 19 20 10 6 5 5 6
CIN
0 0 0 0 0 0 0 0 0 0 0 0 0 0 0 0 0 0 0 0 0 0 0 0 0 0 0 0 0 0 0 0 0 0 0 0 0 0 0 0 0 0 0
0 0 0 0 0 0 0 0 0 0 0 0 0 0 0 0 0 0 0 0 0 0 0 0 0 0 0 0 0 0 0 0 0 0 0 0 0 0 0 0 0 0 0
0 0 0 0 0 0 0 0 -1 0 0 0 0 0 0 0 0 0 0 0 0 0 0 0 0 0 0 0 0 0 0 0 0 0 0 0 0 0 0 0 0 0 0
0 0 0 0 0 0 0 0 0 0 0 0 0 0 0 0 0 0 0 0 0 0 0 0 0 0 0 0 0 0 0 0 0 0 0 0 0 0 0 0 0 0 0
0 0 0 0 0 0 0 0 0 0 0 0 0 0 0 0 0 0 0 0 0 0 0 0 0 0 0 0 0 0 0 0 0 0 0 0 0 0 0 0 0 0 0
0 0 0 0 0 0 0 0 0 0 0 0 0 0 0 0 0 0 0 0 0 0 0 0 0 0 0 0 0 0 0 0 0 0 0 0 0 0 -3 0 0 -1 0
0 0 0 0 0 0 0 0 0 0 0 0 0 0 0 0 0 0 0 0 0 0 0 0 0 0 0 0 0 0 0 0 0 0 0 0 0 -1 0 0 -1 -1 -1
0 0 0 0 0 0 0 0 0 0 0 0 0 0 0 0 0 0 0 0 0 0 0 0 0 0 0 0 -1 0 0 0 -1 0 0 0 -1 -2 0 0 0 -1 0
0 0 0 0 0 0 0 0 0 0 0 0 0 0 0 0 0 0 0 0 0 0 0 0 0 0 0 0 0 0 0 -1 -8 0 0 0 0 0 0 0 -1 -1 0
0 0 0 0 0 0 0 0 0 0 0 0 0 0 0 0 0 0 0 0 0 0 0 0 0 0 0 0 0 0 0 -7 0 -1 0 0 0 0 0 0 -1 0 0
0 0 0 0 0 0 0 0 0 0 0 0 0 0 0 0 0 0 0 0 0 0 0 0 0 0 0 0 0 -1 -5 0 0 -7 0 0 0 -1 0 -1 0 0 -1
0 0 0 0 0 0 0 0 0 0 0 0 0 0 0 0 0 0 0 0 0 0 0 0 -4 0 -1 -1 -5 -1 -17 -3 -7 -1 -1 -1 0 -1 -1 -1 -2 -1 -1
0 0 0 0 0 0 0 0 0 0 0 0 0 0 0 0 0 0 0 0 0 0 0 0 0 -7 -1 0 0 -2 -1 -2 -3 -1 -1 -1 -3 -2 0 -2 -2 -1 -2
0 0 0 0 0 0 0 0 0 0 0 0 0 0 0 0 0 0 0 0 0 0 0 -1 0 0 -6 -2 -1 0 0 -1 -3 -1 0 -1 -2 -4 -2 -3 -4 -3 -3
0 0 0 0 0 0 0 0 0 0 0 0 0 0 0 0 0 0 0 0 0 0 0 0 0 -1 -1 0 -2 -1 -1 -3 -1 0 0 -1 -1 0 -2 -2 -6 -2 0
0 0 0 0 0 0 0 0 0 0 0 0 0 0 0 0 0 0 0 0 0 0 0 0 0 0 0 0 -2 0 0 0 0 0 0 0 0 0 -1 -2 -3 -3 -3
0 0 0 0 0 0 0 0 0 0 0 0 0 0 0 0 0 0 0 0 0 0 0 0 0 0 0 -1 0 0 0 0 0 0 0 0 0 0 0 0 0 0 0
0 0 0 0 0 0 0 0 0 0 0 0 0 0 0 0 0 0 0 0 0 0 0 0 -1 -1 -1 -1 0 0 0 0 0 0 0 0 0 0 0 0 0 0 0
0 0 0 0 0 0 0 0 0 0 0 0 0 0 0 0 0 0 0 0 0 -2 -1 0 -1 -1 0 0 0 -1 0 0 0 0 0 0 0 0 0 0 0 0 0
0 0 0 0 0 0 0 0 0 0 0 0 0 0 0 0 0 0 0 0 0 0 0 0 -1 0 0 0 0 0 0 0 0 0 0 0 0 0 0 0 0 0 0
0 0 0 0 0 0 0 0 0 0 0 0 0 0 0 0 0 0 0 0 -1 0 0 0 0 0 0 0 0 0 0 0 0 0 0 0 0 0 0 0 0 0 0
0 0 0 0 0 0 0 0 0 0 0 0 0 0 0 0 0 0 0 0 -1 -1 0 0 -2 -1 0 0 0 0 0 0 0 0 0 0 0 0 0 0 0 0 0
0 0 0 0 0 0 0 0 0 0 0 0 0 0 0 0 0 0 0 0 -1 0 0 0 -2 -1 0 -1 -2 -1 0 0 0 0 0 0 0 0 0 0 0 0 0
0 0 0 0 0 0 0 0 0 0 0 0 0 0 0 0 0 0 0 -1 0 0 0 -1 -3 -1 -2 0 0 0 0 0 0 -7 -1 0 0 0 0 -1 0 0 0
0 0 0 0 0 0 0 0 0 0 0 0 0 0 0 0 0 0 0 -1 0 -1 0 -1 -1 -1 0 0 0 0 0 0 -1 0 -1 0 0 0 0 0 0 0 0
0 0 0 0 0 0 0 0 0 0 0 0 0 0 0 0 0 0 -1 0 0 -1 -1 -1 0 0 0 0 -1 -2 0 -1 0 -1 0 0 0 0 0 0 0 0 0
Wind_Speed
8 8 9 8 9 9 8 9 8 9 8 8 8 9 8 6 6 7 7 8 8 7 6 8 7 5 4 4 4 3 1 1 2 1 1 2 3 2 2 2 2 1 1
7 9 10 11 11 11 11 10 9 9 9 10 10 10 7 6 6 9 9 8 7 6 5 6 5 4 5 4 3 4 3 1 3 3 2 2 2 1 2 4 3 4 3
8 11 10 11 12 10 10 10 9 9 9 10 9 11 10 7 6 6 6 6 5 4 4 5 5 5 5 4 4 3 3 2 3 3 2 2 1 0 2 3 4 3 3
7 10 10 10 10 10 10 11 10 9 9 9 9 8 8 7 6 5 5 5 6 5 5 6 7 6 6 6 4 4 3 3 3 3 2 2 1 2 3 3 3 2 3
10 11 11 12 10 12 11 11 10 10 9 9 10 9 10 7 5 7 7 7 7 7 6 5 5 7 9 7 4 4 4 2 2 2 2 1 2 2 1 1 4 4 6
10 11 10 10 10 10 10 10 10 10 10 10 10 10 10 7 13 12 9 7 7 6 6 7 7 9 8 8 7 5 4 1 1 1 1 2 3 2 3 4 4 5 4
10 10 11 11 11 12 11 11 11 11 11 9 10 10 11 10 13 13 12 6 5 6 6 5 5 4 7 6 7 7 6 6 6 5 3 3 4 4 2 5 6 6 6
12 11 10 11 11 11 10 11 11 10 10 9 9 10 9 7 11 11 10 6 6 6 5 4 4 4 3 2 5 4 2 4 3 2 5 4 3 4 4 5 7 8 7
12 12 11 12 12 11 11 11 10 9 9 9 8 9 9 8 9 8 6 6 6 5 4 3 1 3 5 1 4 4 4 5 8 6 6 3 3 4 5 4 6 3 5
11 11 11 10 10 10 9 9 7 7 8 7 7 7 10 8 7 5 2 4 5 4 3 4 3 4 2 3 6 3 2 4 3 4 3 3 5 5 3 6 4 4 3
13 12 12 11 11 11 10 8 8 8 8 8 8 7 8 9 7 5 5 3 3 2 3 3 5 2 2 3 5 1 2 5 3 0 3 2 2 2 1 1 2 3 3
13 13 13 13 10 10 11 10 10 9 8 7 7 5 5 7 8 4 4 6 4 2 2 2 5 4 5 6 4 2 5 4 1 2 2 2 3 2 3 3 3 4 4
14 13 12 11 9 9 9 8 7 7 6 7 6 6 5 5 5 10 6 4 2 1 2 7 5 3 2 2 1 1 3 0 1 1 2 1 1 2 4 3 4 5 5
14 13 12 11 11 10 8 8 7 7 6 6 5 5 5 4 5 6 5 4 3 3 5 4 1 1 2 3 3 2 1 1 2 3 2 2 2 3 3 3 3 4 4
15 13 12 9 10 9 8 6 6 7 5 5 5 5 5 5 5 7 5 4 4 3 3 1 2 2 1 0 0 1 0 2 3 2 2 3 4 3 4 2 3 4 4
14 12 10 9 10 8 8 7 10 7 10 7 5 3 5 2 11 10 6 4 6 6 3 2 3 3 3 1 1 2 2 3 3 3 3 3 4 4 4 3 4 3 4
14 13 10 10 10 9 8 8 8 4 5 5 5 4 4 8 10 10 9 7 8 6 3 1 3 3 3 2 2 2 3 4 4 3 4 4 5 4 5 5 4 4 5
14 13 10 10 9 9 9 8 7 8 8 7 8 9 8 10 11 11 10 6 5 4 2 1 3 2 2 2 2 2 3 3 3 4 4 4 3 4 5 5 4 5 5
13 11 10 10 8 9 8 8 7 8 7 7 7 9 11 12 12 10 9 4 3 4 5 3 1 2 2 2 2 2 3 3 3 3 3 3 4 4 4 5 5 9 10
13 14 13 10 9 10 9 9 8 9 8 8 7 7 8 10 7 6 5 5 4 3 2 2 2 2 2 1 2 2 2 3 4 3 4 4 4 4 5 5 5 5 6
10 10 16 10 10 10 10 10 9 8 8 8 7 9 16 8 7 6 5 4 3 3 3 3 2 2 2 2 3 2 3 2 3 4 4 4 4 4 4 4 5 6 7
10 10 11 10 9 10 10 9 9 9 9 8 7 10 19 6 5 5 5 4 4 3 3 3 2 1 2 2 2 2 2 3 4 3 3 3 4 4 4 5 5 5 6
10 10 10 9 8 11 10 9 9 9 9 9 9 9 9 6 6 5 4 4 4 4 4 4 3 3 3 2 2 1 2 4 3 2 4 4 5 5 5 5 6 6 6
9 10 10 9 8 9 10 10 10 11 11 10 9 9 9 8 6 6 5 5 5 5 4 3 3 4 4 3 3 3 3 2 1 3 6 6 6 7 5 5 6 8 7
9 9 9 9 9 9 10 10 10 10 10 10 10 9 8 6 7 6 6 5 5 5 5 4 3 4 6 6 4 4 1 3 5 7 5 7 8 9 7 6 7 8 9
9 9 8 8 8 9 9 9 10 10 10 9 9 8 8 8 7 7 6 7 6 5 5 4 4 6 6 5 5 3 4 8 8 10 7 6 7 6 5 7 10 7 8
Wind_Direction
57 65 87 93 89 85 81 76 80 99 97 101 107 112 113 118 115 94 89 96 95 96 83 106 92 83 69 51 52 67 170 216 199 115 102 256 213 239 113 270 205 322 297
73 86 78 82 83 78 83 89 94 94 96 100 107 103 101 110 117 120 123 122 138 133 125 107 104 98 102 126 126 141 144 174 151 137 170 187 196 280 265 296 347 315 342
91 89 88 92 94 92 98 99 95 93 106 115 115 121 119 111 92 84 89 99 90 96 110 117 129 128 130 133 124 121 110 89 89 127 138 179 167 46 338 304 283 271 278
93 96 92 91 92 94 91 96 104 101 95 94 89 79 83 82 95 96 96 97 108 93 90 110 130 132 140 143 134 129 119 87 68 90 99 146 214 149 249 277 315 310 301
116 110 105 98 95 94 91 91 81 84 99 104 101 96 91 86 92 101 104 106 100 95 89 93 98 127 134 136 129 133 131 136 144 162 164 192 242 230 308 344 292 322 280
110 108 111 107 109 108 103 105 109 109 109 106 101 93 88 86 98 103 101 101 103 107 118 114 114 116 114 116 114 104 65 63 179 293 354 277 266 250 47 339 329 292 313
126 128 126 126 122 120 124 123 118 114 110 105 105 105 101 99 109 110 111 105 108 113 121 115 117 111 140 127 117 107 87 54 25 347 304 354 2 45 345 296 310 314 308
147 147 140 135 130 128 127 125 121 121 125 118 112 106 103 95 102 107 112 109 109 116 116 126 137 166 65 316 178 196 184 158 74 21 26 28 339 341 293 289 308 293 278
149 147 145 145 143 140 140 138 133 128 122 122 122 120 119 112 110 116 120 112 112 114 113 86 185 209 118 284 242 229 201 133 94 71 81 58 354 334 316 307 268 303 292
154 149 145 144 138 139 134 133 128 124 117 119 125 120 108 113 103 92 108 123 135 132 139 128 30 26 134 243 250 202 260 135 170 166 175 212 223 180 245 252 322 307 360
153 150 150 147 150 145 146 142 144 138 143 139 132 133 126 116 114 97 1 125 132 154 158 177 119 49 18 96 6 280 33 102 106 293 293 272 247 237 235 293 343 328 319
154 155 156 159 157 158 157 158 152 149 148 145 139 130 121 135 131 118 63 59 11 154 151 107 88 90 67 52 3 77 117 112 207 287 258 265 281 322 357 325 343 313 298
162 164 162 159 160 160 159 158 151 159 162 161 166 163 164 163 154 156 154 142 174 322 110 77 114 85 37 313 327 234 141 213 46 306 265 271 301 308 296 287 292 282 282
169 167 167 168 168 169 167 172 174 179 177 173 178 177 162 175 176 166 171 182 153 201 134 155 105 360 354 331 289 178 173 57 282 273 259 256 261 277 279 282 293 297 297
174 172 173 175 177 174 180 181 184 194 183 177 184 179 166 182 188 177 182 202 195 112 121 171 231 249 302 286 63 125 242 239 256 251 273 291 286 281 278 323 314 315 315
178 176 175 176 178 176 175 162 64 52 97 72 88 165 155 104 147 163 166 119 114 136 212 213 263 274 291 294 227 222 232 263 277 272 267 269 279 294 296 286 277 284 297
183 176 173 181 177 179 179 171 173 121 131 147 165 152 141 158 157 166 176 177 173 173 257 272 267 282 285 258 250 236 243 247 250 245 262 270 270 276 305 304 294 298 293
188 172 177 186 179 177 179 181 177 171 172 170 181 176 172 162 169 172 173 180 178 212 275 250 274 261 256 268 262 270 277 283 257 256 265 288 322 307 283 289 310 300 294
187 178 180 177 180 177 177 176 181 173 175 166 157 176 170 172 169 171 181 218 204 194 211 219 253 257 228 180 199 204 256 269 274 296 282 272 266 272 295 299 289 293 294
189 177 178 174 174 176 177 179 177 173 173 164 169 172 161 163 170 179 197 217 228 198 220 210 209 244 240 207 227 224 243 267 280 294 293 294 294 282 284 292 300 322 312
183 180 176 180 180 178 176 180 175 173 171 166 170 171 170 169 172 180 200 201 190 202 199 218 191 218 233 235 239 225 241 275 299 281 275 280 288 288 292 308 311 288 290
182 177 179 186 177 178 176 175 171 168 167 162 164 164 172 176 159 194 193 185 190 186 181 191 168 272 283 258 259 234 264 283 274 272 281 291 290 288 292 286 289 287 289
177 173 172 182 176 171 172 173 168 166 161 165 152 159 171 166 185 197 181 174 177 180 179 159 163 212 234 251 269 258 248 260 278 314 311 311 307 298 298 300 305 303 301
170 169 165 174 174 169 170 169 168 169 164 156 151 162 164 182 193 185 177 176 176 175 168 181 179 205 237 234 221 225 236 256 308 314 292 282 285 295 297 291 288 292 301
165 166 164 166 167 169 168 171 171 164 155 156 155 160 172 174 191 174 176 169 171 175 178 182 193 223 232 238 235 246 232 292 288 282 280 275 276 282 280 279 291 294 297
160 156 156 154 163 175 170 170 161 155 155 155 163 166 156 182 180 167 168 174 175 176 177 176 213 222 232 248 261 293 318 296 290 288 291 288 288 292 295 292 294 294 295